Weather History for Whiteman AFB, MO

Change the Weather History Date:

Thursday, June 14, 2012

  Actual Average Record
Temperature  
Mean Temperature 76 °F -  
Max Temperature 90 °F 80 °F 90 °F (2012)
Min Temperature 62 °F 61 °F 59 °F (2002)
Cooling Degree Days 11    
Growing Degree Days 26 (Base 50)    
Moisture  
Dew Point 57 °F    
Average Humidity 54    
Maximum Humidity 88    
Minimum Humidity 27    
Precipitation  
Precipitation 0.00 in - - ()
Sea Level Pressure  
Sea Level Pressure 29.94 in    
Wind  
Wind Speed 9 mph (SSE)    
Max Wind Speed 16 mph    
Max Gust Speed 22 mph    
Visibility 10 miles    
Events      
Averages and records for this station are not official NWS values.
T = Trace of Precipitation, MM = Missing Value Source: NWS Daily Summary

Daily Weather History Graph

Daily Weather History Graph

Search for Another Location

Airport:

Trip Planner

Search our weather history database for the weather conditions in past years. The results will help you decide how hot, cold, wet, or windy it might be!

Date:

Astronomy

Jun. 14, 2012 Rise Set
Actual Time 5:48 AM CDT 8:40 PM CDT
Civil Twilight 5:16 AM CDT 9:12 PM CDT
Nautical Twilight 4:36 AM CDT 9:52 PM CDT
Astronomical Twilight 3:50 AM CDT 10:38 PM CDT
Moon 2:29 AM CDT (6/14) 4:26 PM CDT (6/14)
Length of Visible Light 15h 55m
Length of Day
14h 51m
Waning Crescent, 21% of the Moon is Illuminated
Jun 14
Waning Crescent
Jun 19
New
Jun 26
First Quarter
Jul 3
Full
Jul 10
Last Quarter

Hourly Weather History & Observations

Time (CDT) Temp. Heat Index Dew Point Humidity Pressure Visibility Wind Dir Wind Speed Gust Speed Precip Events Conditions
12:55 AM 68.4 °F - 59.4 °F 73% 29.98 in 10.0 mi SSE 5.8 mph - N/A   Clear
1:55 AM 67.3 °F - 59.9 °F 77% 29.97 in 10.0 mi SSE 5.8 mph - N/A   Clear
2:55 AM 65.5 °F - 59.9 °F 82% 29.96 in 10.0 mi SSE 5.8 mph - N/A   Clear
3:55 AM 64.2 °F - 60.1 °F 86% 29.96 in 10.0 mi SE 5.8 mph - N/A   Clear
4:55 AM 63.7 °F - 59.5 °F 86% 29.96 in 10.0 mi SSE 5.8 mph - N/A   Clear
5:55 AM 62.8 °F - 59.2 °F 88% 29.98 in 10.0 mi SE 6.9 mph - N/A   Clear
6:55 AM 64.0 °F - 58.6 °F 83% 30.00 in 10.0 mi SSE 6.9 mph - N/A   Clear
7:55 AM 67.1 °F - 58.6 °F 74% 30.00 in 10.0 mi SSE 9.2 mph - N/A   Clear
8:55 AM 72.3 °F - 58.3 °F 61% 29.99 in 10.0 mi South 11.5 mph - N/A   Clear
9:55 AM 78.1 °F - 57.4 °F 49% 29.99 in 10.0 mi South 15.0 mph 21.9 mph N/A   Clear
10:55 AM 81.5 °F 81.4 °F 57.2 °F 43% 29.99 in 10.0 mi South 16.1 mph - N/A   Clear
11:55 AM 82.9 °F 82.3 °F 56.3 °F 40% 29.99 in 10.0 mi South 16.1 mph - N/A   Scattered Clouds
12:55 PM 85.5 °F 84.8 °F 58.8 °F 40% 29.98 in 10.0 mi South 16.1 mph - N/A   Mostly Cloudy
1:55 PM 87.4 °F 86.9 °F 59.4 °F 39% 29.96 in 10.0 mi SSE 13.8 mph 18.4 mph N/A   Scattered Clouds
2:55 PM 88.5 °F 87.1 °F 57.2 °F 34% 29.94 in 10.0 mi SSE 10.4 mph 19.6 mph N/A   Clear
3:55 PM 89.8 °F 87.7 °F 54.9 °F 30% 29.94 in 10.0 mi SSE 11.5 mph - N/A   Clear
4:55 PM 90.3 °F - 52.0 °F 27% 29.92 in 10.0 mi SE 11.5 mph 19.6 mph N/A   Clear
5:55 PM 89.6 °F - 52.9 °F 28% 29.91 in 10.0 mi SSE 11.5 mph - N/A   Clear
6:55 PM 87.4 °F 85.7 °F 55.0 °F 33% 29.90 in 10.0 mi SSE 11.5 mph 20.7 mph N/A   Clear
7:55 PM 84.0 °F 83.0 °F 55.9 °F 38% 29.85 in 10.0 mi SSE 16.1 mph - N/A   Clear
8:55 PM 79.3 °F - 57.4 °F 47% 29.85 in 10.0 mi SSE 9.2 mph - N/A   Clear
9:55 PM 77.5 °F - 56.7 °F 48% 29.85 in 10.0 mi SSE 11.5 mph - N/A   Clear
10:55 PM 76.3 °F - 55.4 °F 48% 29.86 in 10.0 mi SSE 11.5 mph - N/A   Clear
11:55 PM 74.3 °F - 55.6 °F 52% 29.89 in 10.0 mi SSE 9.2 mph - N/A   Clear